Snowfall_Accumulation
0.0 0.0 0.0 0.0 0.0 0.0 0.0 0.0 0.0 0.0 0.0 0.0 0.0 0.0 0.0 0.0 0.0 0.0 0.0 0.0 0.0 0.0 0.0 0.0 0.0 0.0 0.0 0.0 0.0 0.0 0.0 0.0 0.0 0.0 0.0 0.0 0.0 0.0 0.0 0.0 0.0 0.0 0.0 0.0 0.0 0.0 0.0
0.0 0.0 0.0 0.0 0.0 0.0 0.0 0.0 0.0 0.0 0.0 0.0 0.0 0.0 0.0 0.0 0.0 0.0 0.0 0.0 0.0 0.0 0.0 0.0 0.0 0.0 0.0 0.0 0.0 0.0 0.0 0.0 0.0 0.0 0.0 0.0 0.0 0.0 0.0 0.0 0.0 0.0 0.0 0.0 0.0 0.0 0.0
0.0 0.0 0.0 0.0 0.0 0.0 0.0 0.0 0.0 0.0 0.0 0.0 0.0 0.0 0.0 0.0 0.0 0.0 0.0 0.0 0.0 0.0 0.0 0.0 0.0 0.0 0.0 0.0 0.0 0.0 0.0 0.0 0.0 0.0 0.0 0.0 0.0 0.0 0.0 0.0 0.0 0.0 0.0 0.0 0.0 0.0 0.0
0.0 0.0 0.0 0.0 0.0 0.0 0.0 0.0 0.0 0.0 0.0 0.0 0.0 0.0 0.0 0.0 0.0 0.0 0.0 0.0 0.0 0.0 0.0 0.0 0.0 0.0 0.0 0.0 0.0 0.0 0.0 0.0 0.0 0.0 0.0 0.0 0.0 0.0 0.0 0.0 0.0 0.0 0.0 0.0 0.0 0.0 0.0
0.0 0.0 0.0 0.0 0.0 0.0 0.0 0.0 0.0 0.0 0.0 0.0 0.0 0.0 0.0 0.0 0.0 0.0 0.0 0.0 0.0 0.0 0.0 0.0 0.0 0.0 0.0 0.0 0.0 0.0 0.0 0.0 0.0 0.0 0.0 0.0 0.0 0.0 0.0 0.0 0.0 0.0 0.0 0.0 0.0 0.0 0.0
0.0 0.0 0.0 0.0 0.0 0.0 0.0 0.0 0.0 0.0 0.0 0.0 0.0 0.0 0.0 0.0 0.0 0.0 0.0 0.0 0.0 0.0 0.0 0.0 0.0 0.0 0.0 0.0 0.0 0.0 0.0 0.0 0.0 0.0 0.0 0.0 0.0 0.0 0.0 0.0 0.4 0.0 0.0 0.0 0.0 0.0 0.0
0.0 0.0 0.0 0.0 0.0 0.0 0.0 0.0 0.0 0.0 0.0 0.0 0.0 0.0 0.0 0.0 0.0 0.0 0.0 0.0 0.0 0.0 0.0 0.0 0.0 0.0 0.0 0.0 0.0 0.0 0.0 0.0 0.0 0.0 0.0 0.0 0.0 0.0 0.0 0.0 0.0 0.1 0.2 0.0 0.0 0.0 0.0
0.0 0.0 0.0 0.0 0.0 0.0 0.0 0.0 0.0 0.0 0.0 0.0 0.0 0.0 0.0 0.0 0.0 0.0 0.0 0.0 0.0 0.0 0.0 0.0 0.0 0.0 0.0 0.0 0.0 0.0 0.0 0.0 0.0 0.0 0.0 0.0 0.0 0.0 0.0 0.0 0.0 0.0 0.0 0.2 0.0 0.0 0.0
0.0 0.0 0.0 0.0 0.0 0.0 0.0 0.0 0.0 0.0 0.0 0.0 0.0 0.0 0.0 0.0 0.0 0.0 0.0 0.0 0.0 0.0 0.1 0.0 0.0 0.0 0.0 0.0 0.0 0.0 0.0 0.0 0.0 0.0 0.0 0.0 0.0 0.0 0.0 0.0 0.0 0.0 0.0 0.0 0.0 0.0 0.0
0.0 0.0 0.0 0.0 0.0 0.0 0.0 0.0 0.0 0.0 0.0 0.0 0.0 0.0 0.0 0.0 0.0 0.0 0.0 0.0 0.0 0.0 2.6 0.0 0.0 0.0 0.0 0.0 0.0 0.0 0.0 0.0 0.0 0.0 0.0 0.0 0.0 0.0 0.0 0.0 0.0 2.6 0.0 0.0 0.0 0.0 1.1
0.0 0.0 0.0 0.0 0.0 0.0 0.0 0.0 0.0 0.0 0.0 0.0 0.0 0.0 0.0 0.0 0.0 0.0 0.0 0.0 0.0 0.0 82.1 0.0 0.0 0.0 0.0 0.0 0.0 0.0 0.0 0.0 0.0 0.0 0.0 0.1 0.0 0.0 0.1 0.1 0.0 0.0 0.0 0.0 0.0 2.5 3.6
0.0 0.0 0.0 0.0 0.0 0.0 0.0 0.0 0.0 0.0 0.0 0.0 0.0 0.0 0.0 0.0 0.0 0.0 0.0 0.0 0.0 14.0 71.4 0.0 0.0 0.0 0.0 0.0 0.0 0.0 0.0 0.0 0.0 0.0 0.0 0.0 0.0 0.0 0.1 0.0 0.0 0.0 0.0 0.0 0.2 0.6 15.2
0.0 0.0 0.0 0.0 0.0 0.0 0.0 0.0 0.0 0.0 0.0 0.0 0.0 0.0 0.0 0.0 0.0 0.0 0.0 0.0 35.2 69.6 0.0 0.0 0.0 0.0 0.0 0.0 0.0 0.0 0.0 0.0 2.1 6.2 0.8 0.0 0.0 0.0 0.0 0.0 0.0 0.0 0.7 23.9 27.2 26.3 17.8
0.0 0.0 0.0 0.0 0.0 0.0 0.0 0.0 0.0 0.0 0.0 0.0 0.0 0.0 0.0 0.0 0.0 0.0 0.0 3.9 82.4 6.5 0.0 0.0 0.0 0.0 0.4 0.2 0.0 0.0 0.0 1.1 2.6 5.1 6.6 5.8 6.5 1.3 0.5 0.3 1.7 0.5 1.2 10.1 35.0 18.3 4.8
0.0 0.0 0.0 0.0 0.0 0.0 0.0 0.0 0.0 0.0 0.0 0.0 0.0 0.0 0.0 0.0 0.0 0.0 1.9 64.6 23.0 1.5 0.5 0.8 0.0 0.6 1.4 0.5 1.4 0.6 0.1 2.3 5.0 7.8 24.2 27.1 12.0 2.8 2.0 0.7 0.1 1.6 2.5 0.0 7.5 1.5 15.5
0.0 0.0 0.0 0.0 0.0 0.0 0.0 0.0 0.0 0.0 0.0 0.0 0.0 0.0 0.0 0.0 0.0 0.0 18.3 32.6 5.6 0.8 1.3 1.5 10.3 6.2 9.8 2.7 5.5 7.4 7.6 8.0 8.5 7.9 6.7 27.1 37.2 7.7 1.6 0.0 0.0 3.5 1.2 7.4 8.2 60.6 50.0
0.0 0.0 0.0 0.0 0.0 0.0 0.0 0.0 0.0 0.0 0.0 0.0 0.0 0.7 0.0 0.0 0.0 1.5 49.3 13.7 1.1 0.0 0.0 3.8 12.3 12.7 6.7 8.5 6.4 8.1 5.7 1.4 1.1 3.9 2.8 10.6 21.5 7.0 2.5 8.4 15.5 12.5 16.8 16.0 23.9 42.1 47.7
0.0 0.0 0.0 0.0 0.0 0.0 0.0 0.0 0.0 0.0 0.0 0.0 0.0 17.6 0.0 0.0 10.6 24.5 19.7 3.8 0.0 0.0 0.0 1.1 2.5 5.4 9.0 8.6 10.0 13.5 7.8 1.8 0.0 0.6 2.7 1.8 13.5 10.3 2.9 0.6 0.6 3.3 14.3 22.4 48.9 49.6 36.3
0.0 0.0 0.0 0.0 0.0 0.0 0.0 0.0 0.0 0.0 0.0 0.0 6.6 4.3 0.0 0.0 30.6 15.1 2.7 1.6 0.9 1.6 0.8 2.2 4.2 4.9 6.5 11.4 15.5 5.9 4.5 0.0 0.0 0.8 5.8 3.4 14.2 14.4 5.7 0.9 0.2 3.2 3.3 7.3 20.5 28.1 43.0
0.0 0.0 0.0 0.0 0.0 0.0 0.0 0.0 0.0 0.0 0.0 0.0 5.2 29.1 3.8 2.7 1.5 3.0 4.8 4.3 4.4 0.0 0.7 0.1 3.4 4.0 5.8 4.4 1.9 6.8 4.4 0.2 0.0 0.0 0.0 0.0 10.7 13.3 15.1 10.4 5.4 8.6 5.4 3.3 10.2 39.0 26.1
0.0 0.0 0.0 0.0 0.0 0.0 0.0 0.0 0.0 0.0 0.0 0.0 12.5 21.1 0.1 20.4 12.2 5.0 4.1 5.8 6.1 5.7 0.5 0.2 3.5 3.4 7.1 12.9 4.7 2.6 1.3 0.4 0.0 0.2 0.0 0.5 16.3 6.2 4.0 4.0 2.1 2.6 5.8 3.4 5.4 6.4 15.6
0.0 0.0 0.0 0.0 0.0 0.0 0.0 0.0 0.0 0.0 0.0 0.0 47.0 8.6 1.8 2.0 0.1 2.9 10.5 14.6 7.1 1.4 5.0 2.1 3.7 1.7 2.9 10.0 4.6 8.2 3.1 0.4 2.7 0.0 0.2 0.1 8.0 7.2 6.9 3.3 1.2 6.9 7.5 3.8 3.0 4.9 5.8
0.0 0.0 0.0 0.0 0.0 0.0 0.0 0.0 0.0 0.0 0.0 0.0 1.4 0.0 3.5 3.0 1.8 5.9 4.7 2.7 3.7 2.7 0.3 0.7 1.7 4.4 4.9 2.1 0.3 0.2 0.5 0.8 2.0 4.1 3.2 3.3 6.3 6.7 10.4 0.8 1.7 11.4 11.0 6.5 3.4 1.3 2.3
0.0 0.0 0.0 0.0 0.0 0.0 0.0 0.0 0.0 0.0 0.0 0.0 0.0 0.6 13.9 16.5 5.2 2.5 0.3 1.0 1.8 1.5 5.6 1.1 0.3 2.0 0.0 0.0 0.0 0.0 0.2 0.1 0.1 0.8 1.0 5.8 5.6 8.1 9.8 5.4 24.9 10.4 1.6 1.0 1.0 1.0 1.4
0.0 0.0 0.0 0.0 0.0 0.0 0.0 0.0 0.0 0.0 0.0 0.0 0.0 0.1 10.1 17.1 1.5 2.0 2.0 2.8 0.2 0.5 2.0 1.3 0.6 0.0 0.0 0.6 3.5 5.8 3.0 1.8 0.7 0.1 0.3 1.0 4.8 15.5 16.4 6.7 4.2 2.4 1.8 1.4 1.8 2.1 1.2
0.0 0.0 0.0 0.0 0.0 0.0 0.0 0.0 0.0 0.0 0.0 0.0 0.0 0.0 5.9 21.2 5.9 0.4 4.7 3.2 5.4 2.9 3.8 1.8 0.0 0.0 0.0 3.1 10.7 14.1 6.7 2.1 1.4 0.5 0.0 0.3 2.0 17.5 19.2 18.1 9.7 2.8 0.5 0.1 0.0 3.6 0.8
0.0 0.0 0.0 0.0 0.0 0.0 0.0 0.0 0.0 0.0 0.0 0.0 0.0 0.0 2.4 24.8 0.2 0.4 2.3 4.2 2.0 2.2 3.5 0.8 0.4 0.1 0.5 8.4 14.2 12.0 7.6 3.3 7.2 4.3 2.8 7.0 11.4 27.7 23.2 30.1 8.6 1.5 0.6 0.2 8.4 9.7 0.8
0.0 0.0 0.0 0.0 0.0 0.0 0.0 0.0 0.0 0.0 0.0 0.0 0.0 0.0 0.0 10.5 0.4 0.0 0.0 0.2 0.3 0.5 5.1 1.9 6.5 4.4 8.7 19.1 16.6 11.5 10.2 7.4 5.1 1.7 5.5 9.8 15.3 13.9 16.9 29.3 25.4 1.2 1.0 4.0 4.6 0.5 0.5
0.0 0.0 0.0 0.0 0.0 0.0 0.0 0.0 0.0 0.0 0.0 0.0 2.1 0.0 0.0 1.5 0.0 0.0 0.0 0.0 0.0 0.0 0.4 2.0 5.5 6.3 9.1 19.6 13.5 5.8 7.1 7.8 4.9 13.5 0.9 9.3 4.9 9.9 9.6 17.7 6.1 3.9 3.7 1.0 0.4 1.2 1.0